CAPE
0 0 0 0 0 0 0 0 0 0 0 0 0 0 0 0 0 0 0 0 0 0 0 0 0 0 0 0 0 0 0 0 0 0 0 0 0 0 0 0 0 0 0
0 0 0 0 0 0 0 0 0 0 0 0 0 0 0 0 0 0 0 0 0 0 0 0 0 0 0 0 0 0 0 0 0 0 0 0 0 0 0 0 0 0 0
0 0 0 0 0 0 0 0 0 0 0 0 0 0 0 0 0 0 0 0 0 0 0 0 0 0 0 0 0 0 0 0 0 0 0 0 0 0 0 0 0 0 0
0 0 0 0 0 0 0 0 0 0 0 0 0 0 0 0 0 0 0 0 0 0 0 0 0 0 0 0 0 0 0 0 0 0 0 0 0 0 0 0 0 0 0
0 0 0 0 0 0 0 0 0 0 3 0 0 0 0 0 1 0 0 0 0 0 0 0 0 0 0 0 0 0 0 0 0 0 0 0 0 0 0 0 0 0 0
0 0 0 0 0 0 0 0 8 45 11 0 0 0 0 0 1 56 2 0 0 0 0 0 0 0 0 0 0 0 0 0 0 0 0 0 0 0 0 0 0 0 0
0 0 0 0 0 0 0 25 10 1 0 0 0 0 0 0 25 32 83 0 0 0 0 0 0 0 0 0 0 0 0 0 0 0 0 0 0 0 0 0 0 0 0
0 0 0 0 0 0 0 0 0 0 0 0 0 1 0 0 34 50 82 0 0 0 0 0 0 0 0 0 0 0 0 0 0 0 0 0 0 0 0 0 0 1 4
0 0 0 0 0 0 0 0 0 0 0 0 0 1 0 0 19 28 66 0 0 0 0 0 0 0 0 0 0 0 0 0 0 0 0 1 3 0 0 0 0 4 5
0 0 0 0 0 0 0 0 0 0 0 0 2 3 1 7 30 22 55 0 0 0 0 0 0 0 0 0 0 0 0 0 0 0 0 0 0 0 0 0 0 8 8
0 0 0 0 0 0 0 0 0 0 0 0 0 0 1 19 14 27 63 0 0 0 0 0 0 0 0 0 0 0 0 0 0 0 0 0 0 0 0 0 0 6 8
0 0 0 0 0 0 0 0 0 0 0 0 0 2 13 21 13 5 3 0 0 0 0 0 0 0 0 0 0 0 0 1 0 0 0 0 0 0 0 0 0 2 4
0 0 0 0 0 0 0 0 0 0 0 0 2 7 15 16 0 60 14 0 0 0 0 0 0 0 0 0 0 0 0 0 0 0 0 0 0 0 0 0 0 0 1
0 0 0 0 0 0 0 2 4 0 0 5 13 10 19 7 25 25 29 1 0 0 0 0 0 0 0 0 0 0 0 0 0 0 0 0 0 0 0 0 2 1 9
0 0 0 0 0 0 0 1 5 0 1 7 12 15 2 19 25 0 0 0 0 0 0 0 0 0 0 0 0 0 0 0 0 0 0 0 0 0 0 1 1 1 10
18 4 4 7 13 0 0 9 0 6 8 1 23 19 18 25 14 6 0 0 0 0 0 0 0 0 0 0 0 0 0 0 0 0 0 0 0 0 2 1 1 1 13
17 7 9 8 0 1 7 5 3 0 0 19 51 33 31 35 10 0 3 0 0 0 0 0 0 0 0 0 0 0 0 0 0 0 0 0 0 1 1 2 1 1 18
3 24 13 9 6 5 17 6 10 7 6 16 41 23 28 63 5 8 0 0 0 0 0 0 0 0 0 0 0 0 0 0 0 0 0 0 0 2 2 2 1 1 1
13 8 7 2 6 11 16 11 7 6 7 8 16 33 43 42 19 8 0 0 0 0 0 0 0 0 0 0 0 0 0 0 0 0 0 0 0 1 1 2 1 2 1
8 20 20 5 2 5 6 5 9 3 14 14 17 13 10 10 0 0 0 0 0 0 0 0 0 0 0 0 0 0 0 0 0 0 0 0 0 0 1 2 2 1 1
6 3 21 6 8 2 1 0 5 11 10 1 0 0 0 0 0 0 0 0 0 0 0 0 0 0 0 0 0 0 0 0 0 0 0 0 0 0 0 1 2 1 1
2 7 10 10 9 11 9 9 6 4 1 1 0 0 0 0 0 0 0 0 0 0 0 0 0 0 0 0 0 0 0 0 0 0 0 0 0 0 0 1 1 1 1
2 2 8 8 10 12 6 7 5 4 2 0 0 0 0 0 0 0 0 0 0 0 0 0 0 0 0 0 0 0 0 0 0 0 0 0 0 0 0 1 2 2 2
6 4 4 7 10 7 7 7 6 3 1 0 0 0 0 0 0 0 0 0 0 0 0 0 0 0 0 0 0 0 0 0 0 0 0 0 0 0 0 1 2 2 2
5 4 4 4 4 3 2 4 5 5 1 0 0 0 0 0 0 0 0 0 0 0 0 0 0 2 3 0 0 0 0 0 0 0 0 0 8 0 3 2 2 2 1
5 3 3 3 3 3 3 3 4 4 3 1 0 0 0 0 0 0 0 0 0 0 0 0 1 0 0 0 0 0 0 0 0 0 0 4 7 11 6 3 3 1 1
CIN
-0 -0 -0 -0 -0 -0 -0 -0 -0 -0 -0 -0 -0 -0 -0 -0 -0 -0 -0 -0 -0 -0 -0 -0 -0 -0 -0 -0 -0 -0 -0 -0 -0 -0 -0 -0 -0 -0 -0 -0 -0 -0 -0
-0 -0 -0 -0 -0 -0 -0 -0 -0 -0 -0 -0 -0 -0 -0 -0 -0 -0 -0 -0 -0 -0 -0 -0 -0 -0 -0 -0 -0 -0 -0 -0 -0 -0 -0 -0 -0 -0 -0 -0 -0 -0 -0
-0 -0 -0 -0 -0 -0 -0 -0 -0 -0 -0 -0 -0 -0 -0 -0 -0 -0 -0 -0 -0 -0 -0 -0 -0 -0 -0 -0 -0 -0 -0 -0 -0 -0 -0 -0 -0 -0 -0 -0 -0 -0 -0
-0 -0 -0 -0 -0 -0 -0 -0 -0 -0 -0 -0 -0 -0 -0 -0 -0 -0 -0 -0 -0 -0 -0 -0 -0 -0 -0 -0 -0 -0 -0 -0 -0 -0 -0 -0 -0 -0 -0 -0 -0 -0 -0
-0 -0 -0 -0 -0 -0 -0 -0 -0 -0 -73 -0 -0 -0 -0 -0 -31 -0 -0 -0 -0 -0 -0 -0 -0 -0 -0 -0 -0 -0 -0 -0 -0 -0 -0 -0 -0 -0 -0 -0 -0 -0 -0
-0 -0 -0 -0 -0 -0 -0 -0 -166 -103 -59 -45 -0 -0 -0 -1 -102 -44 -10 -0 -0 -0 -0 -0 -0 -0 -0 -0 -0 -0 -0 -0 -0 -0 -0 -0 -0 -0 -0 -0 -0 -0 -0
-0 -0 -0 -0 -0 -0 -0 -126 -87 -14 -0 -0 -0 -0 -0 -8 -0 -48 -50 -0 -0 -0 -0 -0 -0 -0 -0 -0 -0 -0 -0 -0 -0 -0 -0 -0 -0 -0 -0 -0 -0 -0 -0
-0 -0 -0 -0 -0 -0 -0 -0 -0 -0 -0 -0 -0 -6 -0 -0 -0 -0 -4 -0 -0 -0 -0 -0 -0 -0 -0 -0 -0 -0 -0 -0 -0 -0 -0 -0 -0 -0 -0 -0 -0 -2 -2
-0 -0 -0 -0 -0 -0 -0 -0 -0 -0 -0 -0 -0 -3 -0 -0 -0 -0 -0 -0 -0 -0 -0 -0 -0 -0 -0 -0 -0 -0 -0 -0 -0 -0 -0 -0 -0 -0 -0 -0 -0 -0 -0
-0 -0 -0 -0 -0 -0 -0 -0 -0 -0 -0 -1 -3 -5 -15 -1 -0 -0 -0 -0 -0 -0 -0 -0 -0 -0 -0 -0 -0 -0 -0 -0 -0 -0 -0 -0 -0 -0 -0 -0 -0 -0 -0
-24 -0 -0 -0 -0 -0 -0 -0 -0 -0 -0 -0 -0 -0 -3 -0 -1 -0 -0 -0 -0 -0 -0 -0 -0 -0 -0 -0 -0 -0 -0 -0 -0 -0 -0 -0 -0 -0 -0 -0 -1 -1 -0
-0 -0 -0 -0 -0 -0 -0 -0 -0 -0 -0 -0 -0 -3 -2 -0 -1 -8 -0 -0 -0 -0 -0 -0 -0 -0 -0 -0 -0 -0 -0 -0 -0 -0 -0 -0 -0 -0 -0 -0 -0 -1 -0
-0 -0 -0 -0 -0 -0 -0 -0 -0 -0 -0 -0 -2 -1 -0 -2 -0 -0 -14 -0 -0 -0 -0 -0 -0 -0 -0 -0 -0 -0 -0 -0 -0 -0 -0 -0 -0 -0 -0 -0 -1 -1 -0
-0 -0 -0 -0 -0 -0 -1 -2 -2 -1 -0 -0 -0 -0 -0 -4 -2 -5 -5 -3 -0 -0 -0 -0 -0 -0 -0 -0 -0 -0 -0 -0 -0 -0 -0 -0 -0 -0 -0 -1 -0 -0 -1
-0 -0 -0 -0 -0 -0 -0 -0 -1 -0 -1 -0 -1 -1 -3 -0 -1 -0 -0 -0 -0 -0 -0 -0 -0 -0 -0 -0 -0 -0 -0 -0 -0 -0 -0 -0 -0 -0 -0 -1 -0 -0 -0
-0 -2 -5 -4 -3 -0 -0 -0 -1 -0 -0 -0 -0 -3 -1 -1 -8 -9 -3 -0 -0 -0 -0 -0 -0 -0 -0 -0 -0 -0 -0 -0 -0 -0 -0 -0 -0 -0 -0 -0 -0 -0 -0
-0 -5 -10 -3 -0 -1 -0 -0 -0 -0 -0 -0 -0 -0 -0 -2 -7 -1 -86 -0 -0 -0 -0 -0 -0 -0 -0 -0 -0 -0 -0 -0 -0 -0 -0 -0 -0 -0 -0 -0 -0 -0 -0
-1 -0 -1 -1 -0 -0 -0 -1 -0 -0 -0 -1 -0 -0 -1 -0 -9 -31 -6 -0 -0 -0 -0 -0 -0 -0 -0 -0 -0 -0 -0 -0 -0 -25 -0 -0 -0 -0 -0 -0 -0 -0 -0
-0 -0 -0 -0 -3 -1 -0 -0 -0 -0 -1 -0 -0 -0 -0 -3 -12 -16 -0 -0 -0 -0 -0 -0 -0 -0 -0 -0 -0 -0 -0 -0 -0 -0 -0 -0 -0 -0 -0 -0 -0 -0 -0
-0 -0 -0 -0 -0 -0 -0 -0 -0 -0 -0 -0 -1 -0 -1 -1 -0 -0 -0 -0 -0 -0 -0 -0 -0 -0 -0 -0 -0 -0 -0 -0 -0 -0 -0 -0 -0 -0 -0 -0 -0 -0 -0
-0 -0 -0 -0 -0 -0 -0 -0 -0 -0 -0 -2 -0 -0 -0 -0 -0 -0 -0 -0 -0 -0 -0 -0 -0 -0 -0 -0 -0 -0 -0 -0 -0 -0 -0 -0 -0 -0 -0 -0 -0 -0 -0
-0 -0 -0 -0 -0 -0 -0 -0 -0 -0 -0 -0 -0 -0 -0 -0 -0 -0 -0 -0 -0 -0 -0 -0 -0 -0 -0 -0 -0 -0 -0 -0 -0 -0 -0 -0 -0 -0 -0 -0 -0 -0 -0
-0 -0 -0 -0 -0 -0 -0 -0 -0 -0 -0 -0 -0 -0 -0 -0 -0 -0 -0 -0 -0 -0 -0 -0 -0 -0 -0 -0 -0 -0 -0 -0 -0 -0 -0 -0 -0 -0 -0 -0 -0 -0 -0
-0 -0 -0 -0 -0 -0 -0 -0 -0 -0 -1 -0 -0 -0 -0 -0 -0 -0 -0 -0 -0 -0 -0 -0 -0 -0 -0 -0 -0 -0 -0 -0 -0 -0 -0 -0 -0 -0 -0 -0 -0 -0 -0
-0 -0 -0 -0 -0 -0 -0 -0 -0 -0 -0 -0 -0 -0 -0 -0 -0 -0 -0 -0 -0 -0 -0 -0 -0 -46 -52 -5 -0 -0 -0 -0 -0 -0 -0 -0 -10 -4 -3 -0 -0 -0 -0
-0 -0 -0 -0 -0 -0 -0 -0 -0 -0 -0 -0 -0 -0 -0 -0 -0 -0 -0 -0 -0 -0 -0 -0 -38 -6 -0 -0 -0 -0 -0 -0 -0 -1 -0 -22 -8 -1 -2 -0 -0 -0 -0
Wind_Speed
8 7 8 11 13 8 9 12 8 7 7 9 13 14 12 14 15 16 16 13 15 13 11 12 12 8 7 5 4 3 4 4 5 3 4 3 3 5 5 4 5 5 5
8 7 8 11 13 9 11 12 9 8 7 6 10 15 11 11 14 16 16 14 16 15 14 13 12 8 8 7 5 7 5 5 5 6 4 4 6 4 5 5 6 6 5
7 9 9 9 11 13 13 11 11 9 7 6 7 8 10 8 11 15 15 15 15 16 16 15 14 13 10 6 5 6 5 4 4 3 4 3 3 3 5 5 6 6 5
10 13 10 12 12 12 13 11 10 12 7 7 6 8 10 12 11 18 18 18 15 15 14 15 14 15 13 10 8 8 6 5 4 3 3 4 4 5 3 4 6 4 7
9 11 13 9 13 11 8 12 12 10 10 10 8 8 10 12 12 16 18 18 16 14 12 13 12 15 20 16 8 7 7 5 3 4 3 3 3 3 4 4 4 7 9
11 12 11 12 11 8 13 11 7 9 10 11 12 11 11 10 22 29 21 16 16 15 14 12 11 20 20 22 20 18 14 8 6 4 4 4 5 5 4 5 8 7 10
13 14 13 11 10 12 11 8 7 8 8 12 14 11 11 13 24 29 30 14 14 14 14 12 11 10 14 8 17 18 17 17 11 6 6 6 5 5 4 8 10 11 13
16 15 11 11 12 8 9 13 8 7 10 12 13 13 11 11 26 30 24 14 13 14 14 14 14 10 10 10 7 6 5 3 3 3 5 6 7 7 8 9 13 15 15
17 13 12 12 11 10 11 12 10 9 13 11 12 15 10 14 25 29 20 14 13 13 12 13 13 11 17 18 8 7 5 3 5 9 12 13 17 21 19 11 12 12 14
17 12 14 11 9 9 13 10 10 11 14 10 14 13 11 16 20 21 21 10 11 9 9 11 21 14 20 19 8 7 6 5 3 5 5 7 12 13 24 14 12 13 13
13 17 13 8 8 10 8 11 14 14 14 12 14 13 9 15 10 20 26 11 9 9 9 8 8 21 20 19 12 7 6 4 6 3 4 5 7 9 10 11 13 12 13
16 9 11 9 6 9 13 16 14 14 11 13 12 9 9 10 11 19 28 20 18 12 11 8 10 20 17 15 11 9 7 4 1 2 3 5 7 10 11 13 15 14 13
14 15 12 8 9 11 15 15 11 10 9 11 10 8 7 4 5 23 25 25 25 11 9 14 18 17 16 12 11 7 1 3 2 2 4 5 7 11 14 14 14 15 15
19 13 9 9 11 12 10 10 9 8 10 10 9 6 5 3 7 9 10 14 19 13 18 13 11 11 12 8 5 3 3 3 2 2 3 6 8 8 11 9 10 11 8
14 12 10 10 12 10 10 11 7 8 12 10 6 6 6 7 8 13 12 9 9 14 14 8 7 5 4 3 3 4 4 2 2 3 4 5 8 9 9 10 8 8 7
11 10 9 9 8 7 9 9 13 21 23 23 13 8 7 9 21 21 21 22 25 24 10 9 6 5 5 4 4 3 2 2 2 3 4 4 7 9 10 10 8 8 7
12 10 9 11 8 8 10 6 9 11 19 16 15 19 17 10 21 23 25 27 26 18 10 7 7 5 5 5 4 4 2 1 2 2 3 5 7 8 11 9 9 8 6
11 20 10 8 8 10 6 7 6 6 10 4 14 15 15 18 24 24 26 21 10 9 8 7 6 5 6 5 4 3 1 2 3 3 4 5 7 8 8 9 9 9 6
9 9 9 9 8 8 7 6 6 9 3 8 8 10 17 25 25 24 19 10 9 8 7 6 5 6 5 5 4 4 3 3 3 3 4 4 6 7 8 8 9 14 11
7 14 12 8 7 4 4 6 7 5 8 8 7 8 11 15 10 7 7 9 8 7 6 6 5 5 6 5 4 4 3 5 3 3 4 4 5 7 8 9 9 9 8
6 7 12 5 3 0 2 6 7 10 9 6 9 12 18 9 8 8 8 7 7 6 6 6 5 5 5 4 4 4 4 4 3 3 3 4 4 7 7 8 8 8 8
8 7 7 7 7 7 7 8 10 11 11 11 11 13 20 8 8 8 8 7 6 6 6 6 5 5 4 4 4 5 4 4 3 3 4 4 4 6 7 7 8 8 8
9 10 8 8 8 12 9 9 10 11 11 11 11 9 8 8 7 7 8 6 6 6 5 5 5 5 4 4 4 4 5 3 3 3 4 4 4 5 7 7 7 8 7
10 10 10 9 8 9 8 9 11 15 12 10 9 8 7 7 7 8 7 7 7 6 5 5 5 7 6 5 5 4 4 4 4 4 5 4 4 5 5 6 7 8 6
10 10 9 8 8 8 9 10 10 10 9 8 8 7 7 7 7 7 6 6 6 6 6 5 6 9 9 8 7 7 7 9 6 5 4 4 5 7 6 5 6 6 8
10 10 9 9 9 8 8 8 8 8 8 8 7 6 6 7 6 6 5 6 6 5 6 5 7 11 10 7 7 7 9 8 6 7 4 4 5 5 5 6 8 6 7
Wind_Direction
320 303 298 299 294 282 285 289 261 280 279 292 302 302 283 242 226 222 213 199 199 193 192 190 194 163 184 177 173 164 175 155 187 269 222 243 242 244 272 278 261 259 260
266 271 263 283 289 275 280 281 265 256 265 289 307 302 314 269 238 229 219 199 199 196 190 186 190 177 178 172 174 191 189 185 161 219 218 234 222 232 235 253 261 258 246
270 268 271 278 273 282 285 265 275 267 258 276 282 297 302 307 268 239 227 216 205 200 189 187 185 177 182 166 176 189 188 188 185 184 241 233 244 226 249 254 250 255 250
280 290 282 288 279 276 281 276 267 275 257 259 254 278 277 276 276 249 232 222 205 199 189 189 178 183 186 179 182 190 189 190 171 184 219 246 233 245 232 259 278 232 256
280 276 287 283 289 284 265 279 275 264 268 274 262 264 269 271 262 258 227 225 206 191 184 180 178 183 187 184 176 186 176 181 170 190 229 230 245 259 233 248 242 265 270
282 280 274 296 286 272 291 277 265 260 274 269 265 264 270 277 273 274 227 210 200 184 178 180 177 188 196 195 198 194 183 171 189 186 221 230 244 247 233 236 259 275 284
279 284 281 289 277 287 283 272 264 269 271 277 272 252 267 279 274 276 232 198 197 189 180 171 173 183 180 180 203 199 203 207 204 190 215 215 234 225 231 260 269 261 262
277 276 282 270 286 265 283 285 258 260 271 282 278 254 272 283 274 278 212 196 201 190 174 171 175 164 168 165 169 159 162 156 220 229 212 243 238 249 228 257 264 268 270
281 267 276 270 262 274 287 274 261 270 281 277 277 268 270 285 274 276 202 188 197 183 167 166 162 160 176 174 154 171 174 229 250 262 272 282 293 293 287 286 275 273 268
277 277 280 266 253 270 282 266 272 280 282 281 285 259 270 278 266 256 195 176 186 174 160 162 161 156 172 169 152 155 182 229 235 278 293 294 290 280 286 275 269 266 270
284 284 269 251 259 268 264 278 288 286 282 282 277 265 272 265 266 235 190 174 178 165 155 156 153 163 165 170 155 157 185 193 253 270 283 282 280 281 280 273 268 261 263
284 264 278 264 257 284 288 286 277 282 278 286 275 257 255 256 256 245 171 177 184 162 156 147 148 161 163 167 147 172 203 256 95 349 308 294 298 296 296 294 287 278 260
277 283 274 264 276 283 282 276 278 279 288 279 267 250 257 241 246 179 175 188 183 142 142 146 150 156 158 154 151 185 155 88 55 355 300 283 288 295 299 299 304 307 300
279 268 269 266 281 276 269 273 279 279 288 279 270 228 238 195 206 160 183 173 155 138 139 138 146 134 125 134 119 90 92 104 137 267 285 289 292 311 306 315 319 321 323
272 274 268 268 278 272 271 277 275 275 271 279 241 216 169 211 159 153 150 144 132 125 115 104 112 98 100 112 100 95 83 74 32 330 298 304 315 315 317 331 332 328 16
269 270 277 278 271 268 280 276 275 278 284 290 206 174 177 187 152 157 141 130 128 128 118 128 126 121 131 126 116 104 88 40 339 331 299 325 320 320 332 340 348 350 36
276 277 277 280 277 272 282 272 291 301 311 278 176 171 169 169 140 137 135 133 132 123 121 131 133 132 121 119 131 128 140 277 334 316 1 334 329 333 347 348 354 0 34
274 277 281 279 277 273 270 274 272 287 290 119 140 155 164 151 132 134 132 123 111 101 121 131 127 120 125 131 131 124 111 22 32 32 13 344 337 342 355 356 2 358 358
280 284 280 277 271 272 263 258 267 270 128 123 130 159 168 138 145 140 125 118 120 116 117 113 118 124 126 126 123 112 97 67 65 56 19 352 349 351 359 1 5 9 16
300 304 297 277 256 250 246 250 250 131 126 133 146 132 116 120 119 102 106 110 109 106 111 116 118 118 123 121 117 108 78 72 58 50 23 354 3 0 1 358 8 9 5
337 327 7 17 56 173 78 87 96 111 111 95 97 108 120 112 113 108 108 102 104 108 115 119 114 113 112 115 112 98 84 89 69 47 32 357 6 12 5 359 5 17 11
359 2 25 35 51 63 70 83 92 90 91 89 86 91 99 93 96 94 98 99 104 114 116 118 117 119 123 123 120 103 95 94 75 54 28 16 2 10 6 5 6 15 18
16 14 38 44 58 65 63 71 82 84 82 80 80 80 81 84 87 94 99 104 110 108 104 112 113 104 92 89 89 108 108 104 75 70 39 15 13 20 4 1 6 10 15
18 23 30 42 57 63 68 76 78 76 81 84 85 79 78 80 86 87 94 98 99 95 95 101 106 102 96 83 81 70 81 82 66 55 61 21 360 15 7 355 3 2 3
24 28 32 39 48 55 64 69 74 78 76 77 75 76 79 84 89 86 89 92 94 93 90 85 85 92 91 91 85 82 96 90 83 61 37 23 11 8 6 359 358 354 360
22 26 31 35 41 48 58 67 73 75 78 82 76 73 75 79 83 84 82 85 84 87 92 89 100 104 102 93 90 90 87 87 66 32 21 38 46 18 3 358 9 3 358